Weather in Makeni

Sierra Leone     8°53′00″N   12°02′38″W
temp.,
°C
wind,
m/s
gust,
m/s
humid.,
%
clouds,
%
prec.,
mm/h
press.,
hPa
HPBL,
m
8 december, wed
wed800:00+23ese01655 0.0 101211
03:00+22nne11795 0.0 101113
06:00+21ene117627 0.0 101113
09:00+25ne12485 0.0 1013200
12:00+33ne23241 0.0 1012998
15:00+35ene14180 0.0 10082156
18:00+29wsw11380 0.0 100812
21:00+24e11470 0.0 101111
9 december, thu
thu900:00+22s11625 0.0 101112
03:00+21ese118612 0.0 101016
06:00+21e009540 0.0 101013
09:00+25ese118263 0.0 1012297
12:00+31se11555 0.0 10101080
15:00+34w133955 0.0 10071981
18:00+28wsw125926 0.0 100742
21:00+25sse01704 0.0 101014
10 december, fri
fri1000:00+23ese00867 0.0 101011
03:00+22ese11955 0.0 100912
06:00+21ese119811 0.0 100912
09:00+26w11786 0.0 1011394
12:00+32wnw11489 0.0 10091224
15:00+34wsw133810 0.0 10062038
18:00+29sw125742 0.0 100641
21:00+26wsw266714 0.0 1009202
11 december, sat
sat1100:00+23se008417 0.0 101012
03:00+22sse11915 0.0 100812
06:00+22se119551 0.0 100813
09:00+26ssw017713 0.0 1010386
12:00+31wsw215548 0.1 10091547
15:00+33sw224375 0.0 10062055
18:00+29s226220 0.0 100647
21:00+25sw137431 0.0 100990
12 december, sun
sun1200:00+23s118994 0.7 101037
03:00+23sse11945 0.1 100815
06:00+22ese119729 0.1 100915
09:00+26w018069 0.0 1011356
12:00+32w115374 0.0 10101288
15:00+34wnw134151 0.0 10062310
18:00+30w115893 0.0 100725
21:00+25ssw257955 0.1 1010195